Regional Weather Roundup
Issued by NWS Newport/Morehead, NC

Current Version | Previous Version | Graphics & Text | Print | Product List | Glossary Off
Versions: 1 2 3 4 5 6 7 8 9 10 11 12 13 14 15 16 17 18 19 20 21 22 23 24 25 26 27 28 29 30 31 32 33 34 35 36 37 38 39 40 41 42 43 44 45 46 47 48 49 50

000
ASUS42 KMHX 202314
RWRMHX
WEATHER ROUNDUP FOR EASTERN NORTH CAROLINA
NATIONAL WEATHER SERVICE NEWPORT/MOREHEAD CITY NC
700 PM EDT THU JUL 20 2017

NOTE: "FAIR" INDICATES FEW OR NO CLOUDS BELOW 12,000 FEET
WITH NO SIGNIFICANT WEATHER AND/OR OBSTRUCTIONS TO VISIBILITY

NCZ015>017-031-032-045>047-102-103-210000-
NORTH COAST

CITY           SKY/WX    TMP DP  RH WIND       PRES   REMARKS
EDENTON        CLOUDY    89  74  59 S7        29.97F
ELIZABETH CITY CLOUDY    86  77  74 SE7       29.97S
KITTY HAWK     CLOUDY    83  72  68 CALM      29.96F
MANTEO         CLOUDY    83  74  74 S9        29.98F

$$

NCZ045>047-081-094-103-104-210000-
CENTRAL COAST

CITY           SKY/WX    TMP DP  RH WIND       PRES   REMARKS
FRISCO         SUNNY     83  74  74 SW6       29.99F

$$

NCZ095-097-098-100-101-210000-
SOUTHERN COAST

CITY           SKY/WX    TMP DP  RH WIND       PRES   REMARKS
BEAUFORT       SUNNY     83  75  77 SW7       29.99S
CEDAR ISLAND   NOT AVBL
JACKSONVILLE   SUNNY     85  75  72 S6        29.98S
PINEY ISLAND   CLEAR    N/A N/A N/A S7        29.98F
WILMINGTON     SUNNY     86  73  65 S8        29.98S


$$

NCZ011>013-027>030-043-044-078>080-089-090>093-098-210000-
COASTAL PLAIN

CITY           SKY/WX    TMP DP  RH WIND       PRES   REMARKS
AHOSKIE          N/A     86  75  68 CALM      29.96S
CLINTON        SUNNY     91  71  50 CALM      29.97S
ELIZABETHTOWN  NOT AVBL
GOLDSBORO      SUNNY     91  70  49 S3        29.95F
GREENVILLE     SUNNY     90  72  55 SW3       29.98S
HAVELOCK         N/A     85  72  65 S7        29.99S
KENANSVILLE    SUNNY     90  73  58 SE3       29.97S
KINSTON        SUNNY     91  72  52 E5        29.97F
NEW BERN       SUNNY     86  74  67 S7        29.99S
RICHLANDS      SUNNY     86  76  71 S8        29.98F
ROCKY MOUNT    SUNNY     87  75  67 SE3       29.95F
WASHINGTON     SUNNY     89  70  52 SW5       29.97S
WHITEVILLE     SUNNY     89  73  60 S7        29.97S

$$

AMZ130-135-150-152-154-156-158-170-250-252-270-ANZ085-086-088-633-658-670-210000-
MARINE OBSERVATIONS

STATION/POSITION TIME  TEMP    WIND        PRES    WAVE   SWELL
                       AIR SEA DIR/SP/G            HT/PER HT/PER
                 (UTC) (F)     (DEG/KT/KT) (MB)    (FT/S) (FT/S)
CHESAPEAKE LIGHT NOT AVBL
64 E VA BEACH    2150   81 81  210/ 10/ 12 1015.8    2/ 7   2/ 7
DUCK             2248   74 61  140/ 10/ 11 1014.5
2 E DUCK         2230      70                N/A     2/14   2/14
OREGON INLET     2248          170/  7/  9 1015.0
13E OREGON INLT  2248      79                N/A     2/14   2/14
HATTERAS CG      2248   83 82  220/  6/  9 1015.6
DIAMOND BUOY     2150   83 87  200/  4/  8 1015.7    2/ 8   2/ 8
CAPE LOOKOUT     2300   82     220/  5/  7 1015.3
BEAUFORT LAB     2248   83 80  210/  5/  7 1015.1
30 SE NEW RVR IN 2208   81 84  230/  8/ 10 1015.6
30 SE NEW RVR IN 2243      83                N/A     2/ 7   2/11
27 SE WRIGHTSVLE 2208   82 82  240/  8/ 12 1015.4
5 SE WRIGHTSVLE  2208   82 82  200/  8/ 14 1015.3
225 S CAPE HAT   2150   81 84  210/ 10/ 14 1017.7    3/ 8   3/ 8
41 SE CHARLESTON 2250   83 85  190/ 10/ 12 1015.9    2/ 8   2/ 8

$$




USA.gov is the U.S. government's official web portal to all federal, state and local government web resources and services.